Location: Sternwarte Stuttgart
(48.7824°N, 9.1965°E)
Time: 15:04:14
(UTC+00:00)

Daily predictions for brighter satellites

Satellite Brightness Start Highest point End
(mag) Time Altitude Azimuth Time Altitude Azimuth Time Altitude Azimuth
Cosmos 1707 3.5 18:04:43 10° N 18:08:18 33° ENE 18:11:50 10° SE
Cosmos 1656 4.3 18:04:44 10° SSE 18:09:41 34° ESE 18:14:36 10° NE
Cosmos 1025 Rocket 4.2 18:05:29 10° NNW 18:09:41 48° W 18:13:54 10° SSW
HJ-1C 3.6 18:06:48 10° SSE 18:10:07 52° ENE 18:13:26 10° N
Cosmos 1346 Rocket 3.8 18:07:01 10° SSE 18:10:30 27° E 18:13:59 10° NNE
SPOT 3 Rocket 3.8 18:05:38 10° SE 18:10:40 50° ENE 18:15:43 10° N
Aureole 2 Rocket 3.5 18:11:04 10° SSE 18:13:54 23° ESE 18:16:38 10° NE
CZ-4C R/B 3.6 18:09:58 10° NW 18:16:07 36° NNE 18:23:08 10° E
FREGAT/IRIS 2.5 18:16:29 10° SSE 18:19:18 61° ENE 18:22:10 10° N
Envisat 3.8 18:14:41 10° S 18:19:40 57° W 18:24:42 10° NNW
Cosmos 1607 4.1 18:13:27 10° SW 18:19:48 87° NW 18:26:07 10° NE
DEBRIS 1.8 18:18:37 10° W 18:20:51 80° SSW 18:23:19 12° ESE
SL-4 R/B 2.7 18:16:38 10° SW 18:20:51 40° SE 18:24:47 10° ENE
CZ-4 R/B 4.1 18:17:43 10° SSW 18:21:13 25° W 18:24:45 10° NW
Cosmos 921 Rocket 3.1 18:18:46 10° NNW 18:23:12 88° ENE 18:27:39 10° SSE
Cosmos 1455 Rocket 3.6 18:19:45 10° SSE 18:23:47 36° E 18:27:49 10° NNE
H-2A R/B 3.3 18:20:07 10° ESE 18:24:21 24° ENE 18:28:32 10° N
Cosmos 332 Rocket 3.8 18:19:44 10° NNW 18:24:34 72° ENE 18:29:24 10° SSE
Cosmos 2251 Rocket 3.5 18:21:06 10° SSW 18:26:21 71° ESE 18:31:40 10° NNE
Cosmos 1992 Rocket 4.0 18:21:22 10° NNW 18:26:37 69° ENE 18:31:48 10° SSE
Cosmos 1980 Rocket 3.5 18:24:14 10° SE 18:27:48 17° E 18:31:22 10° ENE
CZ-2D R/B 3.5 18:27:29 10° S 18:31:19 72° WSW 18:35:12 10° NNW
Cosmos 1340 3.4 18:30:08 10° SSE 18:33:28 30° E 18:36:49 10° NNE
Cosmos 1892 Rocket 3.5 18:33:21 10° N 18:37:43 87° ENE 18:42:03 10° S
USA 234 4.0 18:31:38 10° ENE 18:37:48 46° N 18:43:57 10° WNW
Cosmos 2061 Rocket 4.5 18:36:56 10° N 18:42:49 40° ENE 18:48:43 10° SE
Cosmos 2100 Rocket 4.1 18:38:14 10° N 18:44:21 55° ENE 18:50:30 10° SSE
Cosmos 1939 Rocket 3.1 18:40:59 10° S 18:44:58 74° WSW 18:49:03 10° NNW
CZ-2C R/B 4.0 18:43:22 10° NNE 18:48:03 75° WNW 18:52:45 10° SSW
Resurs 1-3 4.1 18:45:20 14° SE 18:48:45 40° ENE 18:52:52 10° N
Cosmos 2227 Rocket 2.8 18:45:08 10° NW 18:50:44 60° WSW 18:56:16 10° S
Cosmos 1626 Rocket 3.9 18:47:48 10° N 18:52:04 45° ENE 18:55:36 14° SE
ARGOS 3.7 18:49:09 15° SE 18:53:12 40° ENE 18:58:12 10° N
COBE Rocket 4.4 18:52:33 10° NNE 18:57:12 38° E 19:01:42 10° SSE
Cosmos 2173 Rocket 4.0 18:51:10 10° N 18:57:15 62° ENE 19:03:19 10° SSE
Cosmos 1802 Rocket 4.1 18:51:47 10° N 18:57:50 53° ENE 19:03:47 10° SSE
NOSS 2-1 (C) 4.4 18:52:33 10° NW 18:57:56 78° NE 19:03:50 17° SE
Intercosmos 25 Rocket 3.9 18:55:04 10° SSW 18:58:35 67° WNW 19:03:49 10° N
SWAS 4.4 18:54:31 10° SSW 18:58:49 89° SE 19:03:11 10° NNE
NOSS 2-1 (D) 4.4 18:54:52 10° NW 19:00:17 81° NE 19:06:08 17° SE
Cosmos 371 Rocket 4.4 19:02:37 10° NW 19:07:13 45° WSW 19:11:47 10° S
SL-8 R/B 4.5 19:03:17 10° W 19:07:53 44° SSW 19:10:39 22° SE
Cosmos 1725 Rocket 4.3 19:06:31 10° N 19:12:34 46° ENE 19:16:10 23° SE
Cosmos 1461 4.0 19:09:19 10° S 19:12:20 27° SE 19:12:20 27° SE
Iridium 4 Rocket 3.4 19:09:29 14° SSE 19:13:18 52° E 19:18:08 10° NNE
Cosmos 2369 3.6 19:08:16 10° SSW 19:13:54 79° ESE 19:19:38 10° NNE
Cosmos 1674 3.2 19:11:25 10° N 19:14:55 36° ENE 19:15:09 35° E
Cosmos 1697 Rocket 2.6 19:12:25 10° SSW 19:18:01 69° ESE 19:23:40 10° NNE
Resurs 01 Rocket 1.6 19:15:55 25° SSE 19:18:23 65° ENE 19:22:48 10° N
SJ-6B 3.8 19:16:14 10° S 19:19:55 46° W 19:23:36 10° NNW
Cosmos 1190 Rocket 4.3 19:16:15 10° S 19:21:12 42° ESE 19:26:11 10° NE
Cosmos 1544 4.4 19:18:55 10° SSW 19:22:24 41° WNW 19:25:55 10° N
Cosmos 304 Rocket 4.0 19:22:06 10° NNW 19:26:55 70° WSW 19:30:11 20° S
USA 186 3.7 19:26:35 10° SSW 19:29:41 32° W 19:32:44 10° NNW
Cosmos 1602 Rocket 3.5 19:25:20 10° N 19:29:44 90° E 19:32:10 26° S
Cosmos 1459 Rocket 4.1 19:23:36 10° N 19:29:59 80° W 19:36:16 10° S
Cosmos 2278 3.6 19:25:22 10° SSW 19:31:03 86° ESE 19:36:48 10° NNE
Cosmos 2227 4.3 19:25:37 10° NNW 19:31:20 59° ENE 19:33:30 37° ESE
Meteor 2-5 Rocket 3.7 19:25:52 10° NNW 19:31:30 80° W 19:36:25 13° S
Cosmos 1544 Rocket 4.4 19:29:52 10° SSW 19:34:07 51° WNW 19:38:23 10° N
Cosmos 2297 Rocket 4.1 19:30:28 10° NW 19:35:12 28° WSW 19:39:56 10° SSW
Cosmos 407 Rocket 3.5 19:31:03 10° S 19:36:14 58° ESE 19:41:24 10° NNE
Cosmos 1805 3.4 19:37:42 52° ENE 19:37:42 52° ENE 19:41:02 10° NNE
SPOT 5 4.4 19:38:16 22° ENE 19:38:16 22° ENE 19:41:43 10° NNE
Meteor 1-24 Rocket 3.5 19:32:44 10° N 19:38:14 83° ENE 19:41:01 29° SSE
Cosmos 2263 Rocket 2.6 19:35:52 10° NNW 19:41:13 44° NE 19:42:23 39° E
Cosmos 1818 3.5 19:36:44 10° SSW 19:42:08 65° ESE 19:47:34 10° NE
USA 267 3.6 19:42:38 35° ESE 19:44:10 40° SE 19:50:15 10° SSW
Cosmos 1626 4.4 19:49:52 10° NNE 19:50:54 15° NNE 19:50:54 15° NNE
Cosmos 614 Rocket 3.9 19:51:53 30° S 19:54:21 64° ESE 19:59:32 10° NNE
Cosmos 2285 Rocket 4.3 19:54:53 43° E 19:54:53 43° E 20:00:35 10° NNE
Genesis I 4.0 19:52:53 10° NNW 19:56:25 43° NNE 19:56:25 43° NNE
SL-4 R/B 2.1 19:56:04 10° WSW 20:00:25 74° NNW 20:00:29 74° N
Spot 2 Rocket 3.5 19:59:02 45° S 20:00:38 81° WSW 20:05:48 10° NNW
H-2A R/B 2.5 20:00:27 27° S 20:03:21 63° WSW 20:08:41 10° NNW
Cosmos 676 Rocket 4.4 20:05:41 46° ENE 20:05:41 46° ENE 20:09:40 10° NNE
CZ-4C R/B 2.9 19:58:23 10° NW 20:05:29 87° SW 20:08:20 44° SE
ERS-1 Rocket 3.4 20:07:47 47° NE 20:07:47 47° NE 20:12:11 10° N
Cosmos 1140 Rocket 3.6 20:08:47 57° ENE 20:08:47 57° ENE 20:13:10 10° NNE
Cosmos 1980 Rocket 2.2 20:05:22 10° SSW 20:11:02 84° WNW 20:16:47 10° NNE
Cosmos 1825 Rocket 3.8 20:13:22 10° NNW 20:17:23 69° NW 20:17:23 69° NW
MetOp-B 4.1 20:18:48 65° S 20:19:34 80° WSW 20:24:58 10° NNW
USA 234 3.2 20:18:49 54° E 20:20:23 75° NNE 20:26:56 10° NW
Cosmos 2123 Rocket 4.1 20:16:38 14° SSW 20:22:01 71° W 20:28:13 10° N
Cosmos 2233 Rocket 3.9 20:15:42 10° N 20:22:01 90° ENE 20:23:14 61° S
IRAS Rocket 4.2 20:22:43 70° ENE 20:22:47 70° ENE 20:28:25 10° NNW
CZ-2C R/B 2.9 20:26:44 86° N 20:26:44 86° N 20:31:41 10° NNW
GEOS 3 Rocket 3.5 20:29:32 82° NNE 20:29:32 82° NNE 20:34:37 10° NW
Cosmos 1844 Rocket 3.9 20:26:54 10° NNW 20:31:18 29° NE 20:31:18 29° NE
Cosmos 1758 Rocket 4.2 20:27:59 10° NNW 20:31:59 53° WNW 20:31:59 53° WNW
SPOT 1/Viking Rocket 3.9 20:38:25 59° N 20:38:25 59° N 20:42:41 10° NNW
Cosmos 292 Rocket 4.4 20:35:55 10° NNW 20:39:49 54° WNW 20:39:49 54° WNW
Terra 3.3 20:44:18 30° NNE 20:44:18 30° NNE 20:46:56 10° N
NOSS 3-3 (A) 4.3 20:41:43 10° NW 20:49:09 84° SW 20:50:09 71° SSE
NOSS 3-3 (C) 4.3 20:41:49 10° NW 20:49:15 84° SW 20:50:14 71° SSE
Resurs 01 Rocket 4.2 20:53:29 13° WSW 20:55:19 16° W 20:58:02 10° NW
Meteor 1-21 Rocket 4.5 20:50:15 10° NNW 20:55:10 63° WNW 20:55:10 63° WNW
Cosmos 2322 Rocket 4.2 21:03:07 18° NNE 21:03:07 18° NNE 21:04:27 10° NNE
ADEOS Rocket 3.7 21:09:23 10° NNE 21:12:58 43° N 21:12:58 43° N
SPOT 5 4.2 21:17:30 38° NW 21:17:30 38° NW 21:20:36 10° NNW
SL-16 R/B 3.9 21:23:54 25° NNE 21:23:54 25° NNE 21:26:11 10° NNE
Cosmos 2263 Rocket 3.5 21:20:01 10° NW 21:24:06 32° W 21:24:06 32° W
USA 267 4.0 21:30:03 41° WSW 21:30:03 41° WSW 21:34:04 10° WSW
ATLAS 3B R/B 4.5 21:38:59 19° NE 21:38:59 19° NE 21:40:35 10° NE
CZ-2C R/B 4.2 21:37:40 10° N 21:40:18 29° N 21:40:18 29° N
Cosmos 2360 Rocket 4.5 21:55:27 16° NNE 21:55:27 16° NNE 21:56:28 10° NNE
Cosmos 2278 Rocket 3.9 21:47:42 10° NNW 21:50:47 26° N 21:50:47 26° N
CZ-4C R/B 4.4 21:47:46 10° WNW 21:53:33 25° WSW 21:53:33 25° WSW
Cosmos 1980 Rocket 4.5 21:51:44 10° W 21:55:56 21° NW 22:00:09 10° N
USA 238 DEB 4.5 22:09:36 47° NW 22:09:41 47° NW 22:16:26 10° NE
USA 238 4.5 22:09:52 47° NNW 22:09:52 47° NNW 22:16:32 10° NE
Cosmos 2322 Rocket 4.3 22:44:52 23° NNW 22:44:52 23° NNW 22:48:05 10° N
SL-16 R/B 4.5 23:05:41 19° NW 23:05:41 19° NW 23:09:34 10° N
ATLAS 3B R/B 4.0 23:26:10 33° NNW 23:26:10 33° NNW 23:31:15 10° NE
CENTAUR R/B 3.9 23:35:50 37° N 23:35:50 37° N 23:41:06 10° NE
Cosmos 2360 Rocket 4.4 23:37:10 20° NNW 23:37:10 20° NNW 23:39:55 10° N
Cosmos 2237 Rocket 4.5 23:41:30 19° NNE 23:41:30 19° NNE 23:43:03 10° NNE
Cosmos 2219 Rocket 4.4 23:46:27 21° N 23:46:27 21° N 23:48:24 10° NNE
ATLAS CENTAUR R/B 4.2 23:37:02 10° WNW 23:50:10 51° N 23:50:10 51° N
